Location: Leuk
(46.3174°N, 7.6341°E)
Time: 21:40:52
(UTC+00:00)

MOS 1 Rocket - Pass Details

Date: 09 March 2021
Orbit: 615 x 829 km, 97.4° (Epoch: 21 April)

Event Time Altitude Azimuth Distance (km) Brightness Sun altitude
Rises 04:53:52 0° 178° (S) 2,905 6.5 -11.2°
Reaches altitude 10° 04:56:02 10° 183° (S) 2,021 5.6 -10.8°
Maximum altitude 05:00:21 54° 261° (W) 800 3.3 -10.0°
Drops below altitude 10° 05:04:56 10° 339° (NNW) 2,144 5.7 -9.2°
Sets 05:07:18 0° 344° (NNW) 3,101 6.5 -8.8°
